{"data":{"norad_id":69412,"epoch":"2026-09-20T03:06:56.426400Z","epoch_age_seconds":66686,"freshness":"FRESH","line1":"1 69412U 26125M   26263.12981975  .00000036  00000+0  36595-4 0  9999","line2":"2 69412  88.9899 270.3474 0002071 102.0972 258.0411 13.51026119 14761","mean_motion":13.51026119,"eccentricity":0.0002071,"inclination_deg":88.9899,"raan_deg":270.3474,"arg_perigee_deg":102.0972,"mean_anomaly_deg":258.0411,"bstar":3.6595e-5,"rev_number":1476,"period_min":106.58565217569,"perigee_km":1066.9434125458,"apogee_km":1070.02780363,"semimajor_km":7446.6226080879,"source":"CELESTRAK","updated_at":"2026-09-20T09:00:24.867636Z"}}